Total_Precipitation_Accumulation
1.63 1.65 1.57 1.53 1.55 1.53 1.40 1.31 1.31 1.32 1.30 1.22 1.11 1.08 1.03 1.01 1.05 1.18 1.24 1.27 1.30 1.28 1.23 1.22 1.27 1.36 1.45 1.41 1.45 1.52 1.69 1.87 1.92 1.61 1.42 1.38 1.43 1.43 1.43 1.37 1.22 1.08 1.03
1.44 1.47 1.39 1.32 1.32 1.34 1.27 1.17 1.10 1.10 1.08 1.04 0.99 0.95 0.91 0.93 1.01 1.06 1.06 1.06 1.13 1.13 1.11 1.10 1.11 1.19 1.29 1.32 1.34 1.34 1.46 1.63 1.74 1.72 1.53 1.40 1.38 1.40 1.42 1.42 1.18 0.97 0.92
1.35 1.39 1.40 1.32 1.26 1.21 1.17 1.06 0.97 0.99 1.00 0.97 0.94 0.93 0.94 0.92 0.96 0.96 0.94 0.97 1.02 1.05 1.05 1.03 1.02 1.10 1.14 1.17 1.20 1.23 1.27 1.31 1.45 1.47 1.33 1.27 1.24 1.26 1.41 1.41 1.31 1.26 0.91
1.19 1.28 1.33 1.30 1.23 1.15 1.11 1.10 1.04 1.00 0.96 0.91 0.89 0.89 0.87 0.84 0.87 0.90 0.89 0.96 1.04 1.00 0.93 0.92 0.93 0.93 0.95 1.04 1.06 1.16 1.26 1.35 1.40 1.39 1.29 1.18 1.20 1.25 1.49 1.56 1.48 1.33 1.12
1.09 1.13 1.12 1.11 1.11 1.03 1.00 1.04 1.00 0.99 0.94 0.94 0.90 0.85 0.79 0.77 0.77 0.83 0.83 0.82 0.94 0.94 0.91 0.90 0.84 0.80 0.80 0.85 0.87 0.98 1.16 1.35 1.40 1.44 1.36 1.26 1.26 1.41 1.47 1.40 1.38 1.27 1.12
1.06 1.04 0.98 0.95 0.94 0.88 0.85 0.83 0.83 0.86 0.94 0.96 0.95 0.91 0.81 0.70 0.78 0.77 0.69 0.74 0.83 0.87 0.90 0.89 0.81 0.73 0.68 0.68 0.67 0.74 0.93 1.15 1.34 1.49 1.45 1.36 1.29 1.39 1.49 1.44 1.49 1.50 1.37
1.09 0.98 0.92 0.91 0.89 0.83 0.78 0.79 0.80 0.84 0.90 0.96 0.98 0.98 0.90 0.80 0.81 0.75 0.70 0.71 0.81 0.93 0.97 0.94 0.79 0.68 0.76 0.76 0.73 0.70 0.74 0.84 1.10 1.41 1.55 1.43 1.38 1.47 1.61 1.59 1.60 1.62 1.53
1.09 0.98 0.88 0.87 0.88 0.85 0.86 0.89 0.88 0.88 0.90 0.98 1.01 0.95 0.91 0.84 0.81 0.73 0.70 0.70 0.74 0.83 0.87 0.87 0.95 0.97 0.86 0.80 0.73 0.77 0.86 0.93 0.97 1.05 1.27 1.31 1.21 1.27 1.46 1.53 1.56 1.53 1.46
1.02 0.92 0.83 0.79 0.84 0.82 0.81 0.84 0.86 0.90 0.93 0.97 0.97 0.94 0.92 0.85 0.74 0.68 0.72 0.73 0.71 0.70 0.69 0.70 0.79 0.85 0.80 0.74 0.75 0.85 0.93 0.99 0.86 0.94 1.02 1.17 1.25 1.19 1.20 1.31 1.53 1.70 1.68
0.86 0.80 0.74 0.77 0.79 0.78 0.78 0.81 0.86 0.89 0.89 0.90 0.94 0.95 0.91 0.84 0.68 0.60 0.66 0.67 0.68 0.68 0.70 0.72 0.69 0.64 0.66 0.67 0.75 0.92 1.02 1.01 1.08 1.24 1.39 1.48 1.44 1.36 1.24 1.32 1.60 1.79 1.81
0.69 0.70 0.73 0.78 0.82 0.79 0.83 0.87 0.88 0.88 0.94 0.93 0.89 0.86 0.84 0.72 0.59 0.51 0.51 0.54 0.61 0.64 0.71 0.76 0.72 0.60 0.59 0.59 0.69 0.86 1.02 1.10 1.37 1.68 1.73 1.63 1.53 1.46 1.38 1.35 1.49 1.66 1.82
0.73 0.75 0.77 0.80 0.69 0.67 0.83 0.85 0.82 0.89 0.95 0.91 0.88 0.83 0.76 0.67 0.51 0.42 0.40 0.42 0.49 0.59 0.78 0.75 0.69 0.63 0.55 0.56 0.66 0.85 0.98 1.21 1.55 1.79 1.69 1.49 1.35 1.28 1.24 1.25 1.33 1.43 1.60
0.90 0.89 0.83 0.81 0.81 0.84 0.86 0.81 0.80 0.83 0.79 0.69 0.66 0.69 0.65 0.63 0.56 0.43 0.37 0.38 0.44 0.51 0.69 0.72 0.67 0.64 0.63 0.77 0.87 1.00 1.13 1.36 1.62 1.64 1.49 1.36 1.28 1.22 1.16 1.20 1.23 1.28 1.28
0.98 0.91 0.85 0.87 0.93 0.92 0.83 0.69 0.67 0.66 0.64 0.62 0.60 0.61 0.60 0.56 0.47 0.39 0.36 0.39 0.45 0.50 0.61 0.76 0.84 0.86 0.89 1.01 1.12 1.24 1.33 1.43 1.44 1.39 1.29 1.26 1.20 1.20 1.17 1.17 1.22 1.23 1.30
1.02 0.91 0.82 0.74 0.76 0.80 0.67 0.53 0.51 0.49 0.49 0.56 0.61 0.61 0.60 0.52 0.39 0.39 0.36 0.38 0.44 0.51 0.59 0.80 1.00 1.07 1.14 1.20 1.21 1.27 1.34 1.32 1.29 1.26 1.24 1.21 1.17 1.17 1.18 1.18 1.25 1.21 1.21
0.97 0.87 0.73 0.61 0.58 0.53 0.48 0.48 0.44 0.38 0.40 0.45 0.53 0.51 0.42 0.41 0.36 0.33 0.36 0.42 0.48 0.58 0.65 0.89 1.08 1.14 1.16 1.20 1.19 1.22 1.24 1.20 1.15 1.16 1.20 1.19 1.19 1.18 1.20 1.25 1.31 1.28 1.25
0.91 0.81 0.63 0.50 0.48 0.45 0.45 0.53 0.57 0.46 0.39 0.41 0.43 0.42 0.40 0.38 0.36 0.34 0.37 0.44 0.49 0.57 0.67 0.88 1.08 1.23 1.25 1.16 1.11 1.12 1.17 1.17 1.15 1.15 1.18 1.20 1.17 1.15 1.17 1.23 1.26 1.22 1.19
0.74 0.64 0.55 0.48 0.43 0.41 0.39 0.45 0.59 0.65 0.63 0.60 0.53 0.45 0.43 0.40 0.39 0.39 0.42 0.45 0.55 0.62 0.74 0.91 1.05 1.12 1.15 1.15 1.08 1.07 1.09 1.13 1.16 1.15 1.15 1.20 1.20 1.17 1.16 1.20 1.20 1.11 1.08
0.61 0.53 0.46 0.40 0.37 0.36 0.36 0.40 0.51 0.57 0.66 0.72 0.66 0.57 0.53 0.49 0.48 0.48 0.47 0.49 0.59 0.68 0.77 0.85 0.92 0.94 0.92 0.94 0.93 0.93 0.96 1.01 1.02 1.00 1.02 1.07 1.12 1.15 1.14 1.11 1.08 0.99 1.01
0.51 0.49 0.42 0.32 0.29 0.31 0.35 0.42 0.51 0.58 0.66 0.75 0.72 0.64 0.59 0.61 0.64 0.63 0.57 0.54 0.55 0.61 0.69 0.77 0.82 0.80 0.79 0.80 0.78 0.76 0.78 0.80 0.80 0.81 0.85 0.89 0.94 1.00 1.00 0.94 0.91 0.92 0.98
0.37 0.43 0.45 0.37 0.32 0.34 0.39 0.48 0.58 0.66 0.67 0.75 0.73 0.65 0.68 0.69 0.75 0.76 0.72 0.68 0.65 0.62 0.65 0.66 0.72 0.76 0.75 0.75 0.73 0.70 0.69 0.69 0.68 0.70 0.74 0.81 0.85 0.86 0.82 0.80 0.80 0.79 0.85
0.35 0.38 0.37 0.40 0.42 0.44 0.51 0.58 0.65 0.68 0.65 0.67 0.63 0.57 0.63 0.65 0.72 0.73 0.75 0.78 0.76 0.70 0.68 0.68 0.70 0.74 0.79 0.79 0.72 0.68 0.67 0.65 0.62 0.64 0.69 0.73 0.74 0.71 0.67 0.68 0.70 0.75 0.76
0.33 0.38 0.36 0.37 0.43 0.47 0.52 0.58 0.63 0.63 0.61 0.60 0.56 0.54 0.56 0.60 0.64 0.66 0.70 0.74 0.75 0.74 0.70 0.67 0.69 0.72 0.73 0.74 0.71 0.61 0.57 0.56 0.55 0.58 0.65 0.68 0.68 0.64 0.61 0.63 0.67 0.70 0.70
0.31 0.38 0.37 0.35 0.40 0.43 0.47 0.53 0.53 0.53 0.49 0.52 0.53 0.52 0.53 0.59 0.63 0.66 0.68 0.69 0.72 0.74 0.72 0.71 0.70 0.67 0.64 0.64 0.60 0.50 0.45 0.44 0.43 0.46 0.55 0.61 0.62 0.59 0.59 0.62 0.60 0.58 0.59
0.28 0.33 0.32 0.32 0.34 0.37 0.41 0.43 0.42 0.43 0.43 0.43 0.47 0.49 0.49 0.54 0.57 0.58 0.59 0.62 0.66 0.70 0.69 0.67 0.67 0.62 0.57 0.53 0.51 0.43 0.42 0.42 0.42 0.43 0.49 0.54 0.55 0.59 0.61 0.60 0.56 0.55 0.58
0.25 0.28 0.29 0.31 0.35 0.38 0.39 0.39 0.36 0.37 0.39 0.41 0.41 0.41 0.42 0.45 0.48 0.50 0.52 0.53 0.57 0.63 0.67 0.63 0.57 0.54 0.50 0.46 0.48 0.49 0.46 0.41 0.41 0.44 0.46 0.52 0.55 0.58 0.60 0.60 0.56 0.57 0.61